Location: Kerentrech
(47.7567°N, 3.3595°W)
Time: 19:12:00
(UTC+00:00)

Cosmos 2237 Rocket - Pass Details

Date: 17 February 2020
Orbit: 835 x 849 km, 71.0° (Epoch: 06 April)

Event Time Altitude Azimuth Distance (km) Brightness Sun altitude
Exits shadow 05:45:20 19° 306° (NW) 1,921 3.6 -16.0°
Maximum altitude 05:46:18 19° 319° (NW) 1,882 3.6 -15.9°
Drops below altitude 10° 05:50:17 10° 4° (N) 2,458 4.7 -15.2°
Sets 05:53:29 0° 22° (NNE) 3,396 5.6 -14.7°
